Surat Thani, Thailand

12:49 PM +07 on July 26, 2017 (GMT +0700)
Surat Thani

Weather History for VTSB - June, 2013

Change the Weather History Date:

Wednesday, June 26, 2013

  Actual Average Record
Temperature  
Mean Temperature 84 °F -  
Max Temperature 93 °F 91 °F - ()
Min Temperature 75 °F 74 °F - ()
Cooling Degree Days 19    
Growing Degree Days 34 (Base 50)    
Moisture  
Dew Point 77 °F    
Average Humidity 79    
Maximum Humidity 100    
Minimum Humidity 60    
Precipitation  
Precipitation 0.00 in 0.19 in - ()
Sea Level Pressure  
Sea Level Pressure 29.84 in    
Wind  
Wind Speed 3 mph ()    
Max Wind Speed 10 mph    
Max Gust Speed -    
Visibility 5.0 miles    
Events      
T = Trace of Precipitation, MM = Missing Value Source: Averaged Metar Reports

Daily Weather History Graph

Daily Weather History Graph

Search for Another Location

Airport or City:

Trip Planner

Search our weather history database for the weather conditions in past years. The results will help you decide how hot, cold, wet, or windy it might be!

Date:

Astronomy

Jun. 26, 2013 Rise Set
Actual Time 6:06 AM +07 6:45 PM +07
Civil Twilight 5:43 AM +07 7:08 PM +07
Nautical Twilight 5:16 AM +07 7:35 PM +07
Astronomical Twilight 4:49 AM +07 8:03 PM +07
Moon 9:31 PM +07 8:46 AM +07
Length of Visible Light 13h 25m
Length of Day
12h 39m
Waning Gibbous, 89% of the Moon is Illuminated
Jun 26
Waning Gibbous
Jun 30
Last Quarter
Jul 8
New
Jul 16
First Quarter
Jul 23
Full

Hourly Weather History & Observations

Time (+07) Temp. Heat Index Dew Point Humidity Pressure Visibility Wind Dir Wind Speed Gust Speed Precip Events Conditions
12:00 AM 80.6 °F 88.1 °F 78.8 °F 94% 29.86 in 3.7 mi SSW 5.8 mph - N/A   Mostly Cloudy
1:00 AM 80 °F - 76 °F 83% 29.86 in 4 mi Calm Calm - -   Mist
6:00 AM 75.2 °F - 75.2 °F 100% 29.83 in 3.1 mi Calm Calm - N/A   Mostly Cloudy
7:00 AM 76 °F - 75 °F 95% 29.84 in 4 mi Calm Calm - -   Mist
7:00 AM 75.2 °F - 75.2 °F 100% 29.83 in 5.0 mi Calm Calm - N/A   Mostly Cloudy
8:00 AM 78.8 °F - 77.0 °F 94% 29.86 in 5.0 mi Calm Calm - N/A   Mostly Cloudy
9:00 AM 82.4 °F 90.9 °F 77.0 °F 84% 29.89 in 6.2 mi Calm Calm - N/A   Mostly Cloudy
10:00 AM 86.0 °F 96.9 °F 77.0 °F 74% 29.89 in 6.2 mi South 4.6 mph - N/A   Mostly Cloudy
11:00 AM 86.0 °F 96.9 °F 77.0 °F 74% 29.89 in 6.2 mi SSW 5.8 mph - N/A   Mostly Cloudy
12:00 PM 87.8 °F 97.6 °F 75.2 °F 66% 29.86 in 6.2 mi WSW 8.1 mph - N/A   Mostly Cloudy
1:00 PM 90 °F - 78 °F 60% 29.86 in 6 mi SSW 2.3 mph - -   Mist
1:00 PM 87.8 °F 99.7 °F 77.0 °F 70% 29.86 in 5.0 mi South 6.9 mph - N/A   Mostly Cloudy
2:00 PM 87.8 °F 102.5 °F 78.8 °F 75% 29.83 in 5.0 mi SSW 8.1 mph - N/A   Mostly Cloudy
3:00 PM 89.6 °F 102.2 °F 77.0 °F 66% 29.80 in 5.0 mi SSW 9.2 mph - N/A   Mostly Cloudy
4:00 PM 89.6 °F 102.2 °F 77.0 °F 66% 29.80 in 5.0 mi WSW 10.4 mph - N/A   Mostly Cloudy
5:00 PM 87.8 °F 99.7 °F 77.0 °F 70% 29.80 in 5.0 mi WSW 6.9 mph - N/A   Mostly Cloudy
6:00 PM 87.8 °F 99.7 °F 77.0 °F 70% 29.80 in 5.0 mi SW 4.6 mph - N/A   Mostly Cloudy
7:00 PM 86 °F - 77 °F 68% 29.81 in 5 mi Calm Calm - -   Mist
7:00 PM 86.0 °F 96.9 °F 77.0 °F 74% 29.80 in 5.0 mi WSW 4.6 mph - N/A   Mostly Cloudy
8:00 PM 82.4 °F 92.4 °F 78.8 °F 89% 29.83 in 4.3 mi Calm Calm - N/A   Mostly Cloudy
9:00 PM 80.6 °F 88.1 °F 78.8 °F 94% 29.86 in 4.3 mi Calm Calm - N/A   Mostly Cloudy